GPS BIII-1 (PRN 04)

Last updated on Wed Jun 24 2026 00:03:27 GMT+0000 (Coordinated Universal Time)

1 43873U 18109A 26173.27904583 -.00000039 00000+0 00000+0 0 9992 2 43873 55.6852 91.9854 0038292 197.8099 2.4950 2.00561970 55179
UTC large
Height (km)
Speed (km/s)
/
Latitude / Longitude
Inclination (degrees)
Orbital Period (minutes)
Azimuth
Elevation
Range (km)
Doppler Factor

Next 0 passes for location: London (51.5072 / 0.1276)

No passes found over London.
GPS BIII-1 (PRN 04)